Content
SEND FEEDBACK

Daily
Averages
Monthly
Summary
United States of America

PALMER - AIRPORT, ALASKA


Home > North America > United States > Alaska
Elevation: 220 feet     Latitude: 61 37N     Longitude: 149 06W

WEATHER
 
SELECT A DAY
Number of Records: 180,364;   Date Range: 1/1/95 - 9/22/14
 
SHARE

PRINT THIS DATA

[ ← Previous Day ]
WEATHER ALMANAC - JANUARY 31, 2013
[ Next Day → ]
[ °C ]   °F
Weather ElementAverageHighLow
Temperature25.7 °F30.9 °F (2:53 pm)21 °F (11:53 pm)
Dewpoint22.7 °F28.4 °F (7:40 pm)17.1 °F (11:53 pm)
Humidity88.3 %100 % (7:40 pm)77 % (3:53 am)
Barometer29.85 in29.95 in (11:53 pm)29.70 in (1:21 am)
Wind Speed5.7 mph18.4 mph (12:53 am)
Wind Gust24.2 mph (12:53 am)
Weather ElementAverage
Visibility5.4 mi
Wind DirectionW (271 °)

Weather ElementTotal
Precipitation0.06 in
Heating Degree Days39.1 (Base 65)
Averaged from 49 records on January 31, 2013
WEATHER CONDITIONS BREAKOUT
WIND DIRECTION BREAKOUT
WEATHER BY HOUR - JANUARY 31, 2013
[ °C ]   °F
Local TimeTemperatureDewpointHumidityBarometerVisibilityWind DirectionWind SpeedGust SpeedPrecipitationEventsConditions
12:53 AM23.0 °F18.0 °F81 %29.71 in10.0 miNorth (350°)18.4 mph24.2 mph0.01 inRainLight Freezing Rain
1:21 AM23.0 °F17.6 °F80 %29.70 in10.0 miNorth (350°)17.3 mph0.00 inOvercast
1:53 AM23.0 °F18.0 °F81 %29.72 in10.0 miNorth (350°)18.4 mph0.00 inOvercast
2:53 AM24.1 °F19.0 °F81 %29.72 in10.0 miNorth (360°)17.3 mphOvercast
3:53 AM24.1 °F18.0 °F77 %29.73 in10.0 miNorth (350°)15.0 mphOvercast
4:53 AM24.1 °F19.0 °F81 %29.75 in10.0 miNNW (340°)5.8 mphOvercast
5:53 AM24.1 °F19.9 °F84 %29.76 in9.0 miNorth (350°)8.1 mph0.00 inOvercast
6:53 AM24.1 °F21.0 °F88 %29.77 in9.0 miNorth (350°)10.4 mph0.01 inRainLight Freezing Rain
7:07 AM24.8 °F21.2 °F86 %29.76 in9.0 miNNW (340°)9.2 mph0.00 inOvercast
7:17 AM24.8 °F21.2 °F86 %29.76 in8.0 miNNW (340°)8.1 mph0.00 inOvercast
7:20 AM24.8 °F21.2 °F86 %29.76 in8.0 miNNW (340°)8.1 mph0.00 inOvercast
7:53 AM25.0 °F21.9 °F88 %29.80 in4.0 miCalm0.00 inSnowLight Snow
8:08 AM24.8 °F21.2 °F86 %29.78 in2.5 miNorth (350°)5.8 mph0.00 inSnowLight Snow
8:21 AM24.8 °F21.2 °F86 %29.79 in1.8 miNorth (350°)6.9 mph0.01 inSnowSnow
8:33 AM24.8 °F21.2 °F86 %29.79 in2.5 miNorth (360°)4.6 mph0.01 inSnowLight Snow
8:53 AM25.0 °F21.9 °F88 %29.80 in3.0 miNNW (340°)5.8 mph0.02 inSnowLight Snow
9:15 AM24.8 °F21.2 °F86 %29.80 in6.0 miNNW (340°)8.1 mph0.00 inSnowLight Snow
9:25 AM24.8 °F21.2 °F86 %29.80 in6.0 miNNW (340°)6.9 mph0.00 inSnowLight Snow
9:53 AM25.0 °F21.9 °F88 %29.83 in3.0 miNorth (360°)6.9 mph0.00 inSnowLight Snow
10:53 AM25.0 °F23.0 °F92 %29.85 in3.0 miNorth (350°)5.8 mph0.00 inOvercast
11:13 AM26.6 °F23.0 °F86 %29.84 in3.0 miNorth (350°)6.9 mphOvercast
11:49 AM26.6 °F24.8 °F93 %29.85 in4.0 miNNW (340°)6.9 mphOvercast
11:53 AM26.1 °F24.1 °F92 %29.86 in5.0 miNNW (340°)8.1 mphOvercast
12:53 PM28.0 °F25.0 °F88 %29.88 in7.0 miNorth (360°)5.8 mphOvercast
1:53 PM28.9 °F25.0 °F85 %29.88 in10.0 miNorth (360°)3.5 mphOvercast
2:10 PM28.4 °F24.8 °F86 %29.87 in10.0 miNorth (360°)4.6 mphOvercast
2:25 PM30.2 °F26.6 °F86 %29.87 in10.0 miNorth (10°)3.5 mphOvercast
2:53 PM30.9 °F27.0 °F85 %29.90 in10.0 miNNW (340°)3.5 mphOvercast
3:53 PM30.0 °F27.0 °F88 %29.91 in10.0 miNorth (350°)3.5 mphOvercast
4:40 PM30.2 °F26.6 °F86 %29.89 in5.0 miNorth (350°)3.5 mphOvercast
4:53 PM30.0 °F27.0 °F88 %29.91 in5.0 miNorth (350°)4.6 mphOvercast
5:53 PM30.9 °F28.0 °F89 %29.92 in3.0 miNorth (360°)3.5 mphOvercast
6:53 PM30.0 °F28.0 °F92 %29.92 in10.0 miNorth (350°)3.5 mphOvercast
7:40 PM28.4 °F28.4 °F100 %29.90 in1.8 miNorth (360°)4.6 mphOvercast
7:51 PM28.4 °F28.4 °F100 %29.90 in0.8 miNNW (340°)4.6 mphMist
7:53 PM28.9 °F28.0 °F96 %29.91 in0.5 miNNW (340°)4.6 mphFogLight Freezing Fog
8:38 PM26.6 °F26.6 °F100 %29.91 in2.0 miCalmMostly Cloudy
8:53 PM27.0 °F26.1 °F96 %29.93 in3.0 miCalmScattered Clouds
9:21 PM24.8 °F23.0 °F93 %29.92 in10.0 miCalmMostly Cloudy
9:30 PM23.0 °F21.2 °F93 %29.92 in9.0 miCalmMostly Cloudy
9:41 PM24.8 °F21.2 °F86 %29.92 in1.8 miCalmOvercast
9:50 PM24.8 °F23.0 °F93 %29.92 in0.5 miCalmFogLight Freezing Fog
9:53 PM25.0 °F23.0 °F92 %29.94 in0.5 miCalmFogLight Freezing Fog
10:41 PM23.0 °F21.2 °F93 %29.92 in1.0 miNNW (330°)3.5 mphMist
10:51 PM23.0 °F21.2 °F93 %29.91 in2.0 miNorth (360°)5.8 mphScattered Clouds
10:53 PM23.0 °F19.9 °F88 %29.93 in4.0 miNorth (360°)5.8 mphScattered Clouds
11:12 PM23.0 °F19.4 °F86 %29.92 in1.5 miNorth (360°)3.5 mphMostly Cloudy
11:20 PM21.2 °F19.4 °F93 %29.92 in0.2 miCalmFogLight Freezing Fog
11:53 PM21.0 °F17.1 °F85 %29.95 in0.2 miCalmFogLight Freezing Fog
Hourly data recorded from PAAQ, located miles away from Palmer - Airport, Alaska







STORIES FROM OUR PARTNERS